New York, NY

5:57 PM EDT on August 17, 2017 (GMT -0400)
La Guardia

Weather History for KLGA - November, 2010

Change the Weather History Date:

Tuesday, November 23, 2010

  Actual Average Record
Temperature  
Mean Temperature 58 °F 46 °F  
Max Temperature 63 °F 52 °F 70 °F (1992)
Min Temperature 52 °F 40 °F 23 °F (1972)
Degree Days  
Heating Degree Days 7 19  
Month to date heating degree days 324 361  
Since 1 July heating degree days 489 633  
Cooling Degree Days 0 0  
Month to date cooling degree days 0 0  
Year to date cooling degree days 1721 1213  
Growing Degree Days 8 (Base 50)    
Moisture  
Dew Point 46 °F    
Average Humidity 63    
Maximum Humidity 83    
Minimum Humidity 43    
Precipitation  
Precipitation 0.00 in 0.11 in 1.35 in (2006)
Month to date precipitation 1.53 2.57  
Year to date precipitation 37.26 40.33  
Snow  
Snow 0.00 in 0.00 in 5.70 in (1989)
Month to date snowfall T 0.1  
Since 1 July snowfall T 0.1  
Snow Depth 0.00 in    
Sea Level Pressure  
Sea Level Pressure 29.90 in    
Wind  
Wind Speed 11 mph (SW)    
Max Wind Speed 28 mph    
Max Gust Speed 33 mph    
Visibility 10 miles    
Events      
T = Trace of Precipitation, MM = Missing Value Source: NWS Daily Summary

Daily Weather History Graph

Daily Weather History Graph

Search for Another Location

Airport or City:

Trip Planner

Search our weather history database for the weather conditions in past years. The results will help you decide how hot, cold, wet, or windy it might be!

Date:

Astronomy

Nov. 23, 2010 Rise Set
Actual Time 6:51 AM EST 4:31 PM EST
Civil Twilight 6:21 AM EST 5:01 PM EST
Nautical Twilight 5:48 AM EST 5:35 PM EST
Astronomical Twilight 5:15 AM EST 6:08 PM EST
Moon 6:09 PM EST (11/23) 8:47 AM EST (11/23)
Length of Visible Light 10h 40m
Length of Day
9h 40m
Waning Gibbous, 96% of the Moon is Illuminated
Nov 23
Waning Gibbous
Nov 28
Last Quarter
Dec 5
New
Dec 13
First Quarter
Dec 21
Full

Hourly Weather History & Observations

Time (EST) Temp. Dew Point Humidity Pressure Visibility Wind Dir Wind Speed Gust Speed Precip Events Conditions
12:51 AM 57.0 °F 48.0 °F 72% 30.07 in 10.0 mi SW 6.9 mph - N/A   Mostly Cloudy
1:51 AM 57.0 °F 48.0 °F 72% 30.05 in 10.0 mi SW 6.9 mph - N/A   Mostly Cloudy
2:51 AM 55.9 °F 48.0 °F 75% 30.04 in 10.0 mi SW 6.9 mph - N/A   Mostly Cloudy
3:51 AM 55.0 °F 48.0 °F 77% 30.02 in 10.0 mi SW 9.2 mph - N/A   Scattered Clouds
4:51 AM 54.0 °F 46.9 °F 77% 29.99 in 9.0 mi SSW 9.2 mph - N/A   Mostly Cloudy
5:51 AM 54.0 °F 46.9 °F 77% 29.99 in 10.0 mi SSW 8.1 mph - N/A   Scattered Clouds
6:51 AM 54.0 °F 46.9 °F 77% 29.97 in 8.0 mi South 5.8 mph - N/A   Mostly Cloudy
7:51 AM 54.0 °F 48.0 °F 80% 29.95 in 8.0 mi South 5.8 mph - N/A   Scattered Clouds
8:51 AM 57.0 °F 48.0 °F 72% 29.94 in 10.0 mi SSW 10.4 mph - N/A   Mostly Cloudy
9:51 AM 57.9 °F 48.0 °F 70% 29.92 in 10.0 mi SW 8.1 mph - N/A   Mostly Cloudy
10:51 AM 60.1 °F 48.0 °F 64% 29.89 in 9.0 mi SW 10.4 mph - N/A   Overcast
11:51 AM 61.0 °F 48.0 °F 62% 29.86 in 10.0 mi SW 6.9 mph - N/A   Overcast
12:51 PM 61.0 °F 48.0 °F 62% 29.85 in 10.0 mi WSW 8.1 mph - N/A   Overcast
1:51 PM 62.1 °F 48.0 °F 60% 29.83 in 10.0 mi SW 9.2 mph 17.3 mph N/A   Overcast
2:51 PM 62.1 °F 48.0 °F 60% 29.81 in 10.0 mi SW 9.2 mph - N/A   Overcast
3:51 PM 63.0 °F 48.0 °F 58% 29.80 in 10.0 mi WSW 11.5 mph 20.7 mph N/A   Overcast
4:51 PM 63.0 °F 48.0 °F 58% 29.81 in 10.0 mi WSW 9.2 mph - N/A   Overcast
5:51 PM 62.1 °F 48.0 °F 60% 29.80 in 10.0 mi SW 11.5 mph - N/A   Overcast
6:51 PM 62.1 °F 48.0 °F 60% 29.81 in 10.0 mi West 16.1 mph 25.3 mph N/A   Overcast
7:51 PM 61.0 °F 48.0 °F 62% 29.81 in 10.0 mi West 13.8 mph 21.9 mph N/A   Partly Cloudy
8:51 PM 61.0 °F 41.0 °F 48% 29.83 in 10.0 mi West 15.0 mph 23.0 mph N/A   Partly Cloudy
9:51 PM 60.1 °F 41.0 °F 49% 29.85 in 10.0 mi WNW 15.0 mph 21.9 mph N/A   Mostly Cloudy
10:51 PM 55.9 °F 34.0 °F 44% 29.89 in 10.0 mi NNW 20.7 mph 27.6 mph N/A   Partly Cloudy
11:51 PM 52.0 °F 33.1 °F 49% 29.93 in 10.0 mi NW 18.4 mph 25.3 mph N/A   Clear